STARLINK-4715 (53801 NORAD) Tracking and Keplerian Element Data

This shows tracking and keplerian element data for the satellite.

Feedback or suggestion? Click here.




ElementValue
Catalog53801
NameSTARLINK-4715
Epoch Orbit1113
Epoch Day325.33334491
Epoch Year2022
RAAN274.7099
Inclination53.217
Eccentricity0.0001132
Argument of Perigee104.7138
Mean Anonmoly205.1008
Mean Motion15.58029309
Decay Rate-0.01134527
L11 53801U 22111AE 22325.33334491 -.01134527 00000+0 -16436-1 0 9993
L22 53801 53.2170 274.7099 0001132 104.7138 205.1008 15.58029309 11130



Live tracking and technical data element details for STARLINK-4715 (NORAD 53801). STARLINK-4715 can be tracked NOW for your location showing map with azimuth and elevation plus other details from your city location.







IsCatalogInMostPopularTable: catalog: 53801, numindb: -1

Insert: records affected: 1


GetName: 53801 STARLINK-4715

Hit Count: inserted at: Thu, 08 Dec 2022 08:52:57 GMT